Terminal Aerodrome Forecast
Issued by NWS

Home | Current Version | Previous Version | Text Only | Print | Product List | Glossary On
Versions: 1 2 3 4 5 6 7 8 9 10 11 12 13 14 15 16 17 18 19 20 21 22 23 24
000
FTUS43 KDVN 251359 AAA
TAFBRL
TAF AMD
KBRL 251359Z 2514/2612 08012KT 4SM -SHRA BR VCTS SCT007 OVC015CB
      TEMPO 2514/2515 1 1/2SM SHRA OVC008
     FM251500 07013G22KT 3SM -SHRA BR VCTS SCT007 OVC012CB
      TEMPO 2515/2517 2SM -TSRA BKN008CB
     FM251800 06014G21KT 6SM BR VCSH BKN008 OVC015
     FM260200 05012KT P6SM OVC020
     FM260600 05008KT P6SM BKN050=

USA.gov is the U.S. government's official web portal to all federal, state and local government web resources and services.